Wind_Speed
26 26 26 27 27 28 28 28 29 31 32 34 35 35 36 36 36 37 39 39 41 40 40 41 39 39 41 42 42 41 43 45 45 45 44 43 43 43 44 44 45 45 47 49 50 50 50 51 51 51 52 54 55 56 58 59 60 60 61 63 63 63 63 63 63 62 62 62 63 64 65 65 65 64 61 58 52 47 44 41 39 36 33 35 38 44
26 26 27 28 28 29 29 30 31 32 34 35 36 37 38 39 38 39 40 42 44 44 43 44 41 38 41 43 41 42 44 45 45 44 43 42 43 43 43 44 44 45 47 49 49 49 50 51 51 52 53 54 55 56 58 59 60 61 62 63 63 63 63 63 62 62 61 62 62 62 63 64 63 61 60 57 53 48 44 40 38 36 33 32 34 36
26 27 28 29 30 31 31 33 34 35 37 37 39 40 40 41 41 40 41 43 46 47 46 46 43 38 40 43 41 42 44 45 44 43 42 42 42 43 43 44 44 45 47 48 49 49 49 51 52 53 54 55 56 57 58 59 60 61 62 62 63 63 63 63 62 61 61 61 61 61 61 62 61 60 58 56 52 48 44 40 36 35 33 31 31 32
28 29 30 31 32 32 33 35 36 38 40 41 42 42 42 43 44 44 44 44 45 47 47 47 45 39 39 41 41 42 43 43 43 42 41 41 42 43 43 44 44 46 47 48 48 49 49 51 52 53 55 56 56 57 58 59 60 61 62 62 63 63 63 63 62 61 60 60 60 60 60 60 59 58 57 55 52 47 43 40 36 34 32 31 30 30
30 31 31 33 33 34 35 36 38 39 41 42 43 43 43 44 46 47 47 46 45 45 46 47 46 40 38 41 41 41 42 42 42 41 40 42 42 43 44 44 45 46 47 48 48 49 49 50 52 54 55 56 56 57 58 59 60 61 61 62 63 63 63 63 62 61 60 59 59 59 59 59 58 57 56 54 52 48 43 40 37 34 32 31 29 29
31 32 33 34 35 36 37 37 39 40 41 42 43 43 44 46 47 48 48 48 46 44 44 46 46 41 38 41 41 39 40 40 41 40 41 42 43 44 45 45 45 46 47 48 49 49 50 51 52 54 56 57 57 57 58 58 59 60 61 62 62 63 63 62 62 61 60 59 58 59 59 58 58 57 55 54 52 48 44 40 37 34 32 31 30 29
32 33 34 35 37 37 38 39 40 41 42 43 44 45 46 48 50 50 49 49 46 44 44 44 45 42 39 40 39 37 39 40 40 41 41 43 44 45 46 46 46 47 48 49 49 50 50 52 53 55 57 57 58 58 58 59 59 60 61 62 62 62 62 62 61 61 60 58 57 57 58 58 57 56 55 54 52 49 45 41 37 34 31 30 30 29
34 35 36 37 38 39 40 41 41 43 44 44 46 47 49 50 50 50 49 48 45 43 42 41 42 43 39 38 37 37 39 39 40 42 43 44 46 46 47 47 47 48 49 50 50 51 52 53 55 56 57 59 59 59 59 59 59 60 61 62 62 62 62 62 61 60 59 58 57 56 56 57 57 56 54 53 52 50 46 43 39 36 32 29 28 29
36 37 38 39 40 41 41 42 43 44 45 46 48 49 51 51 50 50 49 47 44 41 41 39 41 42 38 36 37 38 39 39 41 43 44 45 47 47 48 48 48 50 51 51 52 53 54 55 56 57 58 59 60 60 60 60 60 60 61 61 62 62 62 62 61 60 59 58 57 56 55 56 56 55 54 53 51 50 47 44 41 38 34 31 29 27
37 38 39 40 41 42 43 44 44 46 47 48 49 50 51 51 50 50 48 47 44 40 40 39 40 41 39 37 38 40 41 41 43 44 45 46 47 48 49 49 49 50 52 53 53 55 56 57 58 58 59 60 60 61 61 61 61 61 61 61 61 62 61 61 61 60 58 57 56 55 55 55 55 55 54 52 50 49 47 45 42 39 36 33 30 28
38 39 40 40 41 42 44 45 45 47 48 50 51 51 51 51 50 49 47 46 43 40 40 40 39 40 40 39 40 41 42 43 44 45 46 47 47 48 50 50 51 51 52 53 55 56 57 58 59 59 60 60 61 61 61 61 61 61 61 61 61 61 61 61 61 60 58 57 56 55 54 54 54 54 54 52 50 48 47 45 42 40 38 35 32 29
39 40 40 41 42 43 44 45 46 48 49 50 51 51 51 50 49 48 46 46 44 42 41 40 39 39 40 40 41 41 42 44 46 46 47 47 47 48 50 51 52 53 53 54 56 57 59 60 61 61 61 61 61 61 62 62 62 61 61 61 61 61 61 61 61 60 59 57 55 54 53 53 52 53 53 52 50 48 46 45 43 41 39 36 34 31
39 40 41 41 43 44 45 46 47 48 49 50 50 50 50 50 49 48 47 47 45 42 41 40 39 39 39 40 40 41 43 45 46 47 48 48 48 48 50 52 53 54 54 55 57 58 60 61 62 62 62 62 61 62 62 62 62 62 61 61 61 61 61 61 60 60 59 57 55 54 53 52 51 52 52 51 50 49 47 45 43 41 39 37 35 33
39 40 41 42 44 45 46 48 48 49 50 49 49 50 50 50 50 49 48 48 45 40 39 39 39 40 39 39 40 41 43 46 47 47 48 48 49 49 50 52 53 55 55 56 57 59 60 61 63 64 63 63 62 62 62 62 63 63 62 62 61 61 61 60 60 60 58 57 56 54 53 51 51 51 51 51 50 48 47 45 43 41 39 38 36 34
40 41 42 44 45 46 48 49 49 50 49 48 48 49 49 48 47 47 47 47 45 40 37 37 37 40 41 39 40 41 43 46 47 47 48 49 50 50 51 52 54 56 57 58 59 60 61 62 64 65 65 64 64 63 63 63 63 64 63 62 61 61 61 60 60 59 59 57 56 54 53 51 50 50 50 51 50 48 47 45 43 41 39 38 36 34
41 42 44 45 47 47 48 48 49 49 48 47 47 47 46 46 45 45 45 45 44 41 37 36 37 39 41 40 40 41 43 46 47 48 49 50 52 53 53 54 55 57 59 59 60 60 61 63 64 66 66 66 65 64 64 64 64 65 64 63 61 60 60 60 60 59 59 58 56 54 53 51 49 49 49 50 50 48 46 45 43 42 39 38 36 34
42 42 44 46 47 48 48 48 48 47 47 46 46 45 45 46 44 44 44 43 44 42 38 37 37 39 42 42 42 43 44 46 48 49 50 52 54 55 55 56 56 58 60 61 61 62 62 64 65 66 68 68 67 66 65 65 65 65 65 63 61 60 60 60 59 59 59 58 57 55 53 51 49 48 48 49 49 49 47 45 43 42 40 38 37 35
43 43 43 46 47 47 47 47 46 46 45 45 44 44 45 46 45 45 44 43 44 44 40 37 37 40 44 45 45 46 46 47 48 49 51 53 55 57 57 58 58 59 61 62 63 64 64 65 66 67 69 69 68 67 66 66 66 66 66 63 61 60 59 59 59 59 59 58 57 55 53 51 49 48 47 47 48 48 47 45 43 42 41 39 37 36
43 43 43 45 47 46 46 46 45 44 45 44 43 43 44 46 45 44 43 43 44 45 44 40 36 37 44 47 48 48 49 50 51 50 52 53 56 58 59 59 59 60 62 63 64 65 66 67 67 68 69 70 69 68 67 67 67 67 66 64 61 59 59 59 58 59 59 59 58 56 53 51 50 48 46 46 47 48 47 46 44 42 40 39 37 36
44 44 44 45 46 46 46 46 44 43 43 43 42 42 43 44 44 42 41 42 44 45 47 46 38 35 42 48 50 51 51 52 54 53 53 55 56 59 60 61 61 62 63 65 66 67 68 69 69 69 70 70 70 69 68 68 68 67 67 65 61 59 58 58 58 58 58 59 58 57 54 52 50 48 46 45 45 46 47 47 45 43 40 39 38 36
44 44 44 44 45 46 46 45 44 42 41 42 42 42 42 43 43 42 40 41 43 44 46 49 43 37 40 48 50 51 52 53 55 56 56 56 58 60 62 64 64 64 65 66 68 69 70 71 72 71 71 70 70 70 69 68 68 68 67 66 63 60 58 57 57 56 57 58 58 57 55 52 50 48 46 44 44 45 46 46 46 44 41 39 38 37
44 44 44 43 44 45 45 44 43 41 40 40 41 41 42 43 43 43 41 40 42 44 45 49 47 40 41 48 51 52 53 54 55 57 58 59 60 62 64 65 66 65 66 67 69 70 71 72 73 73 72 71 70 70 69 69 68 68 67 66 64 61 58 56 56 55 56 57 57 57 56 53 50 48 46 44 43 44 45 45 45 45 43 40 38 37
43 43 43 43 43 44 44 43 42 40 38 38 40 41 41 42 42 42 43 42 43 45 46 50 50 44 43 50 53 53 54 54 55 58 59 60 61 62 64 65 66 67 67 68 69 70 72 73 74 74 73 72 71 70 70 69 69 68 67 67 65 61 59 56 55 54 55 55 56 57 56 54 51 48 46 44 42 42 43 45 45 45 43 41 39 38
42 42 43 43 42 42 42 42 41 40 37 36 38 40 40 41 41 41 42 44 45 46 47 51 54 49 47 51 54 54 55 55 56 58 59 60 61 62 64 65 67 67 68 70 70 71 72 73 74 74 74 74 73 71 70 69 69 69 68 67 65 62 59 57 55 54 54 54 55 57 57 54 51 48 46 44 42 41 42 43 44 44 43 42 40 38
41 42 43 44 43 42 42 42 43 41 38 36 37 39 41 40 41 41 42 45 46 47 48 52 56 53 51 53 55 55 56 56 56 58 59 61 62 62 64 66 67 68 68 70 71 72 73 73 74 74 75 75 74 73 72 70 69 69 68 67 64 62 60 57 55 54 53 53 54 56 56 55 52 49 46 44 43 41 40 41 43 44 43 42 41 39
41 40 42 43 43 42 42 43 44 42 39 38 38 41 42 41 41 42 43 46 48 49 49 51 56 55 53 55 57 57 58 58 57 59 60 61 63 64 65 66 67 68 68 70 72 73 73 74 74 74 75 75 75 75 74 72 70 69 68 67 65 62 60 58 56 55 54 53 54 55 56 55 52 49 47 45 43 41 40 40 42 43 43 42 41 40
40 39 40 41 40 39 39 40 42 41 37 37 38 41 43 42 41 41 44 46 49 52 52 52 56 58 55 57 59 59 61 61 60 60 61 62 63 64 66 67 68 69 69 70 72 72 73 74 75 76 76 77 77 77 76 74 72 70 69 67 65 63 61 59 57 56 55 54 53 54 55 55 53 50 47 45 43 41 40 39 40 42 42 42 41 40
40 39 39 39 37 36 36 37 39 38 36 35 36 40 43 42 40 41 43 46 49 53 55 55 57 60 58 59 61 61 62 62 62 61 62 63 64 65 67 68 68 69 70 71 72 74 75 76 77 78 78 79 79 79 78 76 74 72 69 67 66 65 63 60 58 57 56 55 53 53 54 55 53 50 47 45 43 41 40 39 40 40 41 42 42 40
41 39 38 37 35 34 35 36 37 37 35 34 35 40 42 41 41 41 42 46 50 53 56 58 59 60 59 59 61 61 63 64 64 63 63 64 66 67 68 68 68 69 71 72 74 76 77 78 79 80 81 82 82 81 80 78 76 73 70 67 67 66 65 62 59 58 57 56 54 53 53 54 53 50 47 45 43 42 40 39 39 39 40 41 42 41
40 39 38 37 34 31 32 35 36 36 34 32 33 39 42 42 43 43 42 46 51 54 56 59 61 60 59 60 62 62 64 66 66 64 64 66 68 69 68 68 69 71 73 75 76 78 79 80 81 83 84 85 85 84 82 79 76 73 70 68 68 67 65 63 62 59 57 56 54 53 52 53 52 50 47 45 43 41 40 38 38 38 39 40 41 41
40 39 38 38 33 28 29 32 33 34 32 30 32 38 42 44 46 45 43 46 51 55 57 60 62 60 59 61 63 64 66 67 67 65 65 67 69 70 69 70 71 73 75 76 78 79 81 82 83 84 85 86 87 86 85 82 78 73 70 69 69 67 64 63 63 61 58 57 55 53 52 52 52 50 47 45 43 41 40 38 38 38 38 39 40 40
39 39 38 38 33 28 29 31 30 31 31 30 34 39 43 46 49 49 47 47 51 56 58 60 62 62 61 62 64 65 66 68 68 66 66 67 68 69 71 72 73 74 76 77 78 80 81 82 83 84 85 86 86 86 86 84 81 75 72 70 69 66 62 63 65 63 59 57 56 54 53 52 51 50 48 45 43 41 40 38 38 37 37 38 39 40
38 38 38 38 35 30 30 31 30 30 32 33 37 43 46 49 52 53 50 48 51 56 59 60 62 63 63 64 65 65 66 68 68 67 67 69 70 70 71 73 73 74 75 76 77 79 80 81 82 83 84 84 84 84 84 83 81 77 74 71 68 65 62 63 66 64 60 57 55 54 54 52 51 50 48 45 43 41 39 38 38 37 36 37 38 39
37 37 37 38 36 33 32 33 31 31 34 38 42 46 49 51 53 55 53 49 51 56 58 60 62 63 64 65 67 68 68 69 68 67 67 70 72 72 71 72 73 74 75 75 76 77 78 80 80 81 82 82 82 81 80 80 78 75 72 70 67 64 63 64 65 63 59 56 55 54 53 52 50 50 48 46 43 41 39 38 38 37 36 36 37 38
36 37 37 38 38 36 35 36 35 34 36 41 45 48 51 52 53 56 55 51 52 56 59 62 63 64 65 67 68 69 69 68 67 67 67 69 71 73 73 73 74 74 75 75 75 76 77 79 81 81 81 80 79 78 78 77 75 72 70 67 65 63 62 62 62 60 58 57 55 53 53 51 50 49 48 46 44 41 39 38 38 37 36 35 36 36
36 37 37 38 39 39 39 39 40 39 39 43 47 49 51 52 54 58 58 53 54 58 61 63 65 65 67 68 69 69 69 68 66 66 68 70 72 73 75 75 76 76 76 76 76 77 78 80 81 81 80 79 77 76 76 75 72 70 68 65 62 61 60 59 59 58 58 58 55 51 51 51 49 49 49 46 44 41 39 38 37 37 36 35 35 35
36 37 38 39 40 41 42 42 43 43 42 45 50 51 52 54 57 61 62 58 57 60 63 65 67 67 68 70 70 69 70 70 67 64 66 69 71 72 74 75 76 76 76 76 76 77 79 81 82 81 80 78 76 75 75 73 71 68 65 63 61 60 57 57 56 55 57 58 54 50 50 50 48 48 48 47 44 41 38 37 37 37 36 34 34 35
36 37 38 40 41 43 45 46 46 46 46 49 53 54 55 57 59 62 64 62 61 62 65 67 68 69 70 71 71 71 72 72 70 67 67 68 70 71 72 73 74 75 75 76 77 78 80 82 82 82 80 78 76 75 75 73 71 67 62 59 59 59 58 55 53 53 57 57 53 50 49 49 47 47 48 47 45 42 38 37 37 37 35 34 33 34
36 37 38 40 41 43 46 47 47 48 49 52 55 55 57 59 60 63 65 64 63 66 68 69 70 70 71 72 72 73 74 75 74 72 71 71 72 73 75 76 76 76 76 77 78 80 81 82 82 82 80 78 77 76 75 73 73 68 61 55 55 57 57 53 51 54 57 55 52 49 48 48 47 46 47 47 45 42 38 36 36 36 35 33 33 33
37 38 39 40 42 44 46 47 47 47 50 53 55 56 58 60 62 64 66 66 67 68 70 71 71 71 71 72 73 73 74 76 77 76 75 76 76 76 78 79 79 79 79 78 79 80 81 82 82 82 80 79 77 76 75 74 73 70 63 56 52 52 53 50 52 56 56 53 51 49 47 48 47 45 46 46 45 42 39 36 36 36 35 33 32 32
38 39 40 41 43 44 47 48 49 49 51 54 56 57 59 62 63 66 69 70 71 70 70 71 71 70 71 72 73 73 73 75 77 78 78 78 79 79 79 80 81 80 80 80 79 80 80 81 82 82 81 79 77 75 75 74 74 72 67 58 51 50 50 49 51 54 53 51 51 49 48 48 46 44 44 45 44 42 39 36 35 35 34 33 31 31
41 41 42 43 45 47 49 51 52 53 53 55 58 60 62 64 66 68 71 72 72 71 71 70 70 70 71 71 72 73 73 74 76 78 79 79 81 81 81 82 82 81 80 79 80 80 80 81 82 82 81 79 77 75 75 75 74 72 68 58 50 48 48 48 48 48 49 51 52 50 48 47 44 43 43 43 43 42 39 36 35 34 34 33 31 31
42 43 44 45 47 49 51 53 56 56 56 58 61 63 65 67 69 71 72 71 70 71 71 70 69 70 72 73 73 74 75 76 77 78 80 80 81 82 83 83 83 82 80 80 80 80 80 81 82 82 81 79 77 75 75 74 73 71 67 60 51 47 46 47 46 45 47 51 53 50 46 44 43 42 41 41 41 41 38 36 34 33 33 32 30 30
43 44 45 47 49 52 53 55 58 58 57 59 62 65 67 69 70 71 71 70 69 69 70 70 70 71 73 76 77 77 79 79 80 80 81 82 82 83 83 83 82 81 80 80 80 80 80 81 82 82 82 80 78 76 74 73 72 70 66 61 55 49 48 49 49 47 47 50 50 46 43 43 42 41 39 39 40 39 38 36 33 32 33 32 30 29
44 45 47 48 51 53 55 57 60 61 59 59 62 66 68 69 69 69 69 69 69 70 71 72 72 73 75 78 79 80 81 82 82 82 82 83 83 83 83 83 82 81 81 80 80 79 79 80 82 83 83 81 79 77 74 72 71 68 65 62 57 52 51 52 50 47 45 47 47 44 43 43 41 39 38 38 38 38 37 35 33 32 32 31 30 29
45 47 49 51 53 55 56 58 62 62 60 60 63 66 68 67 67 67 67 68 69 71 73 74 76 77 78 80 82 82 82 83 84 83 83 84 84 83 83 83 83 82 81 80 80 79 79 79 81 82 83 82 81 78 74 72 69 66 64 61 57 53 50 49 47 44 43 45 47 45 42 41 39 37 36 36 36 37 36 35 32 31 31 30 29 28
48 50 52 54 55 57 58 60 63 64 63 63 65 65 65 65 66 67 68 69 72 73 75 76 78 79 81 82 84 84 84 85 85 85 85 85 85 85 85 85 84 82 81 80 79 79 79 79 80 82 82 82 82 78 75 71 68 65 62 59 56 52 49 46 45 43 42 45 47 45 41 39 38 36 35 34 34 35 35 34 32 31 30 30 29 28
50 52 55 56 58 60 61 63 65 65 64 63 63 64 64 66 68 70 71 73 75 76 77 78 80 82 84 85 86 87 86 85 86 86 87 86 87 87 86 86 84 82 80 79 78 78 79 79 80 81 82 82 82 79 75 71 67 63 60 58 55 51 46 43 42 41 43 46 46 43 39 38 36 34 33 32 33 33 34 33 31 30 30 29 29 28
53 55 57 60 61 62 63 64 65 66 64 63 65 67 69 71 73 75 75 76 77 78 79 80 81 83 86 87 88 89 89 88 88 88 89 89 89 88 87 86 84 82 80 79 78 78 79 79 80 80 81 81 81 79 75 71 67 62 58 56 53 48 43 40 40 42 43 43 40 36 34 33 33 32 31 31 31 32 33 32 31 30 29 29 29 28
55 57 60 63 64 64 64 65 68 69 69 69 70 72 72 74 75 76 76 77 79 81 82 83 83 83 84 86 88 91 92 91 91 91 91 91 90 89 88 86 84 82 80 80 79 78 78 79 79 80 79 80 80 78 75 71 66 61 57 53 50 45 40 37 39 40 39 35 31 29 29 30 31 31 30 29 30 31 31 31 30 29 29 29 28 28
57 59 62 64 66 66 66 67 68 70 71 72 72 72 73 74 75 77 78 79 81 82 84 85 86 87 87 88 89 91 93 94 94 94 93 92 91 90 88 86 85 84 83 82 81 80 79 78 79 79 78 79 79 78 74 70 65 60 55 51 48 43 38 36 37 37 33 30 30 30 29 29 29 30 29 29 29 29 30 30 29 28 28 28 28 28
Wind_Direction
349 350 348 347 346 345 342 338 335 334 333 332 332 331 329 330 330 330 331 331 331 330 327 326 325 322 321 319 318 317 315 316 318 319 321 320 320 321 324 328 331 333 334 334 335 335 335 336 338 338 339 339 340 341 341 339 339 339 339 338 339 340 340 340 340 340 341 341 342 343 344 345 347 347 347 345 343 338 334 331 326 322 312 298 284 271
344 344 343 343 342 339 336 334 332 331 331 332 331 330 329 330 332 332 332 332 331 331 329 328 326 322 320 318 317 317 316 316 318 320 321 320 321 323 327 331 333 334 335 336 336 336 337 338 339 339 340 341 342 342 341 340 340 340 339 339 338 338 339 339 340 340 340 341 342 342 343 345 347 347 346 345 343 340 336 332 326 322 317 308 297 284
340 339 340 339 337 335 333 331 330 329 330 331 330 330 330 330 332 333 334 332 331 331 330 328 327 323 319 318 317 317 316 317 318 320 321 321 322 326 331 333 334 336 336 337 337 338 338 339 339 340 341 342 343 343 341 340 340 340 340 339 338 338 338 338 339 339 340 340 341 342 343 345 346 347 346 345 344 341 337 333 326 320 317 313 305 295
337 337 336 336 334 333 331 330 329 330 330 330 330 330 331 331 332 333 333 333 332 331 329 329 328 324 319 318 318 318 317 317 319 321 321 322 325 329 333 335 335 336 337 338 338 338 339 340 340 341 342 343 344 343 341 341 341 340 340 339 338 337 337 338 338 338 339 340 340 341 342 344 346 346 346 346 345 342 338 334 329 321 315 313 308 301
335 334 334 333 332 331 330 330 329 330 329 329 330 330 331 332 332 333 333 333 332 330 329 328 328 325 319 319 320 319 318 319 320 321 322 325 328 332 335 335 336 336 337 338 338 339 340 340 341 341 342 343 343 343 342 341 341 340 340 339 338 337 337 337 337 337 338 339 339 340 342 343 345 346 346 346 345 343 339 336 332 324 315 310 307 303
333 333 333 332 332 331 330 330 329 329 329 330 330 331 332 333 333 333 333 332 332 331 329 327 327 327 323 321 322 321 320 321 322 323 325 328 332 335 336 336 336 336 337 337 338 339 340 341 342 341 342 342 342 342 342 342 341 340 340 339 338 337 336 336 336 336 337 337 339 339 341 342 343 345 346 346 346 344 341 337 334 329 320 310 305 303
332 332 332 332 331 330 329 329 329 329 329 330 331 332 333 333 333 333 332 332 333 332 330 327 326 327 325 322 324 323 322 324 324 325 328 331 334 336 336 336 336 336 337 337 337 339 340 341 342 341 341 341 341 341 341 341 341 340 339 338 338 337 336 335 335 335 335 336 337 338 340 341 342 343 345 345 345 344 342 339 336 333 327 317 307 301
331 331 331 330 329 329 328 329 330 329 330 331 332 332 333 333 333 332 332 333 334 333 331 328 324 326 327 326 326 325 325 326 327 328 331 334 336 336 336 336 336 336 337 337 338 339 341 341 341 341 341 340 340 340 340 341 340 340 339 338 337 336 335 335 334 334 335 335 336 337 338 339 340 342 343 344 344 343 343 341 337 334 331 325 315 305
330 329 329 329 328 328 328 329 330 330 331 331 332 332 332 332 332 332 333 333 334 333 330 328 325 326 330 330 328 327 327 329 330 332 334 336 336 336 336 336 336 336 337 337 338 339 340 340 340 340 340 339 339 339 340 340 340 339 338 337 337 336 335 334 334 334 334 334 335 336 337 338 339 340 341 342 342 342 341 340 337 334 331 329 324 315
328 327 327 328 328 328 328 329 330 330 331 331 332 332 331 331 331 332 333 333 333 333 331 329 328 329 332 332 330 330 330 331 333 334 335 336 336 336 336 336 335 336 336 337 338 338 339 339 339 339 338 338 338 339 339 340 340 339 338 337 336 336 335 334 333 333 333 334 334 334 335 336 337 338 339 340 341 340 340 339 337 333 330 329 327 323
326 326 327 327 328 328 328 329 330 330 331 331 331 331 330 331 332 332 332 332 333 334 332 332 332 331 334 334 333 333 332 333 334 335 336 335 336 336 335 336 335 335 335 335 336 337 338 338 337 337 337 337 337 338 339 339 339 338 337 336 336 335 335 333 332 332 332 333 333 333 333 334 335 336 337 339 339 339 338 337 335 332 329 327 326 324
325 325 326 327 327 328 328 329 331 331 331 330 330 330 330 331 331 331 332 332 335 336 335 335 335 334 336 336 335 335 334 335 336 336 336 335 335 336 335 335 334 333 333 333 334 335 336 336 336 336 336 336 336 337 338 338 338 338 337 336 335 335 334 333 332 332 331 332 332 332 332 332 333 335 336 337 337 337 337 336 334 331 328 326 324 323
324 324 325 326 326 327 329 330 331 331 330 331 331 331 330 330 331 331 333 334 336 338 337 337 336 336 338 337 335 337 336 337 337 336 335 335 335 335 335 334 333 332 332 332 332 333 334 335 335 335 334 334 335 336 336 337 338 337 336 335 334 334 333 333 332 331 331 330 331 331 331 331 331 332 334 335 336 336 335 334 333 330 327 324 322 321
322 323 324 325 326 328 329 330 330 330 330 331 331 330 330 331 332 333 334 334 335 338 339 338 338 336 337 337 336 338 337 337 337 335 334 334 334 335 334 333 332 331 332 332 332 333 333 333 334 333 333 333 333 334 335 337 337 337 336 335 333 332 332 332 331 330 330 329 330 330 330 330 330 330 331 333 334 335 334 333 332 329 326 322 320 318
322 323 324 325 327 328 329 329 329 329 330 331 330 331 332 332 333 333 334 334 334 338 340 340 340 336 335 337 337 338 337 336 336 335 334 334 334 334 333 332 331 330 331 332 332 332 332 333 333 332 332 332 332 333 334 336 336 336 335 335 333 332 331 331 331 330 329 329 329 329 329 328 328 328 329 331 332 333 333 332 330 329 325 320 317 316
322 323 324 325 326 328 329 329 329 329 330 330 331 331 331 332 333 333 334 333 333 336 339 341 341 336 333 335 336 337 337 335 335 335 334 334 333 333 333 332 331 330 331 332 332 332 332 332 332 332 332 331 331 332 333 334 335 335 335 334 333 331 330 330 330 329 329 328 328 328 328 327 327 327 327 328 330 332 332 331 329 328 325 320 316 313
321 323 324 325 326 327 328 328 329 329 329 330 330 331 331 331 332 332 333 333 332 334 338 341 342 336 331 333 335 336 336 335 335 336 335 334 333 332 333 332 332 331 330 331 332 332 332 332 331 331 331 331 331 331 332 333 334 334 334 333 332 331 330 329 329 329 328 328 327 327 326 326 326 325 325 326 328 330 331 330 329 327 324 321 316 312
320 323 324 324 325 326 327 328 329 329 329 330 330 330 330 330 331 333 333 334 331 331 334 339 344 338 331 332 334 335 335 334 335 336 334 333 332 331 332 331 331 331 330 331 331 331 331 331 331 331 330 330 330 330 330 331 332 332 333 332 331 331 330 329 328 328 328 327 327 326 325 325 324 324 324 324 325 327 329 329 329 327 324 321 316 311
319 321 323 323 324 325 327 328 329 329 329 329 329 330 329 330 332 333 333 333 331 330 331 336 345 342 332 331 332 333 334 334 334 335 333 332 331 330 330 330 330 330 330 330 331 330 330 330 330 330 329 329 330 329 329 329 330 331 331 331 331 330 330 329 329 328 328 327 326 325 324 323 323 323 322 322 323 324 326 328 328 327 324 321 317 312
319 321 322 323 323 324 326 327 328 328 328 328 328 328 329 330 331 332 333 333 331 330 328 330 341 346 335 330 331 332 334 333 333 333 332 331 330 329 329 329 330 330 330 329 329 329 330 330 330 330 329 329 329 328 328 328 329 330 331 330 330 329 329 329 329 328 327 327 326 325 324 322 322 322 321 320 321 322 324 325 327 327 325 322 318 313
319 320 321 323 323 324 326 327 327 328 328 327 327 328 329 329 330 331 332 331 329 328 326 326 334 344 337 328 328 331 332 332 331 331 331 330 330 329 328 328 329 330 329 329 329 329 329 329 329 329 329 329 328 328 327 327 328 329 330 330 329 328 328 328 328 328 327 326 325 324 323 322 321 320 320 319 319 320 322 323 324 326 326 323 319 315
318 319 321 322 323 324 325 326 327 328 327 326 326 327 328 329 329 329 329 329 327 325 325 323 327 339 337 327 327 330 331 331 330 330 330 331 330 329 328 328 328 329 329 329 329 330 330 330 329 330 329 329 328 328 327 326 327 328 328 328 328 327 327 327 328 328 327 326 325 324 323 321 320 319 319 318 317 318 319 321 322 324 325 324 321 317
317 319 320 322 323 324 325 325 325 326 326 326 325 325 326 328 328 328 326 326 325 324 324 322 323 334 336 328 327 330 329 330 330 329 330 330 330 329 328 327 328 329 330 330 330 331 330 330 330 330 330 329 328 328 327 326 326 326 327 327 327 327 326 326 327 327 327 326 325 324 323 321 319 318 317 317 316 316 317 318 320 322 324 324 323 319
317 318 319 321 323 324 324 324 324 325 326 325 324 323 324 326 326 325 324 323 323 322 323 321 322 330 334 328 327 328 328 329 329 329 330 330 329 329 327 327 328 330 331 331 331 331 331 331 331 331 331 330 328 328 327 326 325 325 326 326 326 326 325 325 326 326 326 326 325 324 323 322 320 317 316 316 315 314 314 316 318 320 322 323 323 321
316 319 319 321 323 324 324 323 322 324 326 326 324 321 322 325 325 324 323 322 321 321 322 322 321 327 330 326 325 327 326 327 329 329 330 330 329 329 328 328 330 332 332 331 331 331 331 330 330 330 330 329 328 327 327 326 325 324 324 324 325 325 325 325 325 325 325 326 325 324 322 322 320 317 315 315 314 313 312 313 315 318 320 322 323 322
316 319 320 321 324 325 324 322 321 324 327 326 324 321 321 323 324 324 323 321 320 319 321 321 320 324 328 326 324 326 325 326 329 331 331 330 330 329 328 330 331 332 332 331 330 329 329 328 328 328 328 328 327 326 326 325 324 323 323 323 324 324 325 325 325 325 325 325 324 323 322 321 321 318 315 314 313 313 311 311 313 316 318 320 322 323
316 319 319 320 323 324 323 320 319 322 326 325 323 320 318 320 322 322 322 321 319 317 318 319 317 321 328 326 324 325 325 326 330 332 331 330 329 329 329 330 331 331 330 329 328 328 328 328 328 328 327 326 326 325 324 324 323 322 322 322 323 324 324 325 325 324 324 324 324 323 322 321 321 319 316 313 312 312 311 310 312 314 317 319 320 323
316 318 318 318 321 322 320 317 316 319 323 323 321 316 314 317 319 320 321 319 317 315 316 317 316 319 326 326 324 325 325 327 330 331 331 330 329 329 329 330 330 330 329 329 328 328 329 329 328 327 326 325 325 324 323 322 322 321 321 321 322 324 324 323 323 324 324 323 323 322 321 321 321 320 316 313 311 312 311 309 310 312 314 317 319 322
314 316 316 316 320 321 318 315 315 317 320 323 321 314 311 314 315 318 320 318 316 315 314 314 315 320 325 325 323 325 326 327 329 331 332 331 329 328 328 329 329 330 330 330 330 330 329 328 328 327 326 325 324 323 322 321 321 321 320 320 321 323 322 321 321 322 323 323 322 322 320 320 320 320 317 313 311 311 310 308 308 310 312 315 317 320
312 314 314 314 319 321 316 313 314 316 319 322 318 311 309 312 313 315 318 316 314 314 313 314 317 321 324 323 323 326 327 327 329 331 332 331 328 327 328 329 331 332 332 331 330 329 328 328 327 326 325 324 322 321 321 320 319 319 320 320 320 321 321 320 319 320 321 322 322 321 320 319 319 320 318 314 311 310 309 308 307 308 310 313 315 318
311 312 313 313 319 322 315 312 314 315 318 321 316 309 310 312 311 312 315 316 315 314 314 316 318 321 324 324 324 326 327 327 328 330 332 330 328 328 330 332 333 332 331 330 329 328 328 327 326 325 324 323 321 320 319 319 318 318 318 318 317 319 319 318 318 318 319 320 321 321 319 318 318 319 318 315 312 310 309 308 306 306 308 311 314 317
310 312 313 313 319 323 316 314 316 317 320 321 315 310 309 309 309 311 316 320 318 315 316 317 318 321 324 324 325 326 326 326 327 331 332 330 328 330 331 332 332 330 329 328 328 327 327 326 325 324 323 321 320 319 318 317 317 316 317 316 316 318 318 316 315 317 317 318 319 320 319 318 317 318 318 316 312 310 309 307 306 305 307 309 312 315
310 312 313 314 319 323 319 318 320 321 323 320 313 309 308 308 311 314 319 322 318 315 316 318 319 321 323 323 324 324 324 325 327 332 333 330 329 331 331 330 329 328 328 328 328 327 327 326 325 323 322 321 320 319 318 317 316 316 316 316 317 318 318 314 314 315 316 315 317 318 318 317 316 317 317 316 314 310 308 307 305 305 305 307 310 313
311 312 314 315 318 323 322 320 320 323 322 316 311 310 310 312 315 316 317 320 317 316 316 317 318 320 322 323 323 323 323 325 329 333 333 330 329 329 329 328 327 327 328 328 328 328 327 326 325 324 323 323 322 321 319 318 317 317 317 317 317 318 316 313 313 314 314 313 314 316 317 316 316 316 317 317 315 311 308 307 305 304 304 306 308 312
311 312 315 316 318 322 322 319 319 321 319 314 311 311 312 314 315 313 314 318 318 316 317 317 318 320 321 321 321 322 323 326 329 332 331 329 328 327 327 327 327 328 328 328 328 328 328 327 326 326 325 325 324 323 321 319 318 317 317 317 317 316 314 313 313 313 313 312 313 314 315 316 315 316 317 317 315 312 309 307 305 304 304 305 307 310
312 314 315 316 318 320 319 318 318 319 318 314 311 311 312 313 313 312 314 318 318 316 317 318 319 320 320 320 321 322 323 325 328 330 329 327 327 327 327 328 328 328 329 329 329 329 329 328 328 328 328 327 326 325 323 321 320 318 317 317 316 315 315 314 313 313 312 311 312 313 313 314 315 315 316 317 315 313 309 306 304 303 303 304 306 309
312 314 315 316 318 318 317 317 316 316 317 313 310 311 313 313 313 314 316 319 319 317 317 318 319 320 319 319 321 322 323 323 325 327 326 325 326 326 326 327 327 328 329 329 329 330 330 330 330 330 330 329 328 327 326 324 322 319 318 317 316 316 316 314 313 313 312 311 311 311 311 313 314 314 315 316 316 314 310 305 303 303 303 303 305 308
311 313 315 316 318 317 315 315 315 316 316 313 312 314 314 313 313 314 316 318 319 317 317 318 319 319 320 320 322 323 323 322 322 323 324 324 324 325 325 327 327 328 329 329 330 331 332 332 332 332 331 330 329 328 327 327 324 321 318 317 318 318 316 315 314 313 312 312 311 310 310 311 313 313 313 315 316 314 310 305 302 302 302 303 304 306
311 314 316 316 316 315 313 313 314 315 314 312 312 313 313 312 313 314 316 318 319 318 318 318 319 320 321 322 323 323 322 322 322 324 324 324 325 326 327 328 328 328 329 330 331 332 333 333 333 333 332 331 330 329 328 328 327 324 318 314 316 318 317 317 315 313 313 313 312 310 309 310 311 311 312 314 316 315 311 305 301 301 302 303 303 305
313 315 316 316 315 313 311 311 312 312 311 310 311 312 312 313 314 315 316 318 319 319 318 319 320 322 322 322 322 322 323 323 324 325 326 327 328 329 328 328 329 329 330 330 331 332 333 334 334 333 332 331 329 328 328 328 328 326 320 313 311 314 317 317 315 313 313 314 312 309 309 308 308 309 311 313 315 315 311 305 301 300 301 302 303 304
314 316 316 315 313 311 310 310 310 310 311 312 312 312 313 314 315 316 317 318 319 319 319 320 321 322 321 320 320 321 322 323 324 325 327 328 328 328 328 328 328 329 329 329 330 332 334 335 334 334 333 331 329 328 327 328 328 327 323 317 310 310 315 315 311 312 315 315 313 310 307 307 306 307 309 311 313 314 312 305 300 300 301 301 302 303
316 317 316 314 311 310 310 310 310 311 313 314 313 313 314 315 316 317 318 318 319 319 320 321 321 320 319 319 319 320 321 322 323 324 326 327 327 327 327 327 327 327 327 328 330 332 334 335 335 334 333 331 329 328 327 328 328 326 324 319 308 306 316 318 312 311 315 317 316 312 308 306 305 304 306 309 312 314 311 305 299 298 299 301 302 303
316 316 315 312 310 310 311 311 311 313 315 315 315 315 316 316 317 317 318 319 319 319 319 319 319 319 318 318 319 320 320 322 323 324 325 326 326 325 326 325 325 326 326 327 329 331 333 334 334 334 333 331 329 328 327 327 327 325 324 319 308 303 311 317 314 310 311 315 317 313 308 306 303 302 304 307 310 313 311 305 299 297 298 300 301 302
315 314 313 311 310 311 312 312 312 314 317 316 315 315 316 316 317 317 318 318 318 317 317 318 318 318 318 318 319 321 321 322 323 324 324 324 324 324 324 324 324 324 325 327 329 331 332 333 334 334 333 332 330 328 327 326 326 325 323 319 311 303 300 303 306 305 307 314 316 312 308 306 303 301 303 305 308 311 310 305 299 295 297 299 300 301
315 313 312 311 311 311 313 313 314 315 317 316 314 314 315 316 316 316 317 317 317 317 317 318 318 318 318 319 320 320 321 321 322 322 322 323 323 322 322 322 323 324 325 327 328 329 331 332 333 333 333 332 330 328 327 325 325 325 323 319 315 308 301 300 302 302 305 314 317 312 307 306 302 300 301 303 306 310 309 305 298 294 295 297 299 300
314 312 310 310 311 313 314 314 314 315 316 315 313 314 315 316 316 316 316 316 317 318 318 318 319 319 319 319 319 319 320 320 320 321 321 321 321 320 320 321 322 323 324 325 326 327 329 330 331 332 332 332 330 328 327 325 324 324 323 319 316 313 308 305 303 299 302 313 317 311 306 304 302 299 299 301 305 308 309 305 298 293 294 296 297 299
313 311 311 311 312 314 315 314 314 314 315 314 313 314 315 315 315 316 316 317 317 318 318 318 319 319 318 318 318 318 319 319 319 319 319 319 319 319 319 320 321 322 324 324 325 326 327 328 330 330 330 330 330 328 326 324 323 323 323 320 316 314 313 310 306 300 301 309 314 310 305 303 301 299 298 300 303 307 309 305 298 293 293 295 296 298
313 312 312 312 313 314 315 315 314 315 315 314 314 315 316 316 316 317 318 318 318 318 318 318 318 318 318 317 317 317 318 318 318 317 318 318 318 318 319 320 321 322 322 323 323 323 324 326 327 328 328 329 329 328 326 323 322 322 322 320 317 315 315 314 310 304 303 307 311 309 305 303 302 299 298 299 302 306 308 305 298 292 292 293 295 297
313 313 313 314 315 315 315 314 314 315 316 316 316 317 318 318 317 318 318 318 318 317 317 317 317 317 317 317 317 317 317 317 317 316 317 317 318 318 318 319 320 321 321 321 321 321 322 323 324 325 326 327 327 326 325 322 320 320 321 320 317 315 315 314 313 311 309 310 312 311 308 307 305 302 299 298 301 305 307 304 298 292 290 292 294 295
314 314 314 315 316 316 316 316 317 318 319 318 318 318 318 317 317 317 318 317 317 316 316 315 315 316 316 316 316 315 315 316 316 316 316 317 317 317 318 318 318 319 319 318 319 319 320 320 321 321 323 324 325 325 324 321 318 317 319 319 316 314 312 312 314 316 315 314 315 314 314 314 310 305 301 299 300 304 306 304 298 292 289 290 292 294
315 315 315 315 317 318 318 319 319 319 319 319 318 318 317 317 317 317 317 316 315 315 315 315 315 316 316 315 315 314 314 314 315 315 316 316 316 316 316 316 317 317 317 317 317 317 318 318 318 318 320 322 323 323 323 320 317 315 317 317 314 312 309 307 311 316 316 316 317 317 315 316 314 309 304 300 299 302 305 303 298 292 289 288 289 291
Height
5824 5822 5820 5818 5815 5813 5811 5810 5807 5804 5802 5799 5795 5792 5789 5786 5782 5778 5775 5771 5768 5765 5760 5756 5752 5748 5744 5739 5736 5733 5728 5725 5721 5717 5713 5709 5705 5700 5696 5691 5686 5682 5677 5672 5667 5661 5656 5651 5646 5641 5636 5630 5623 5616 5610 5605 5599 5592 5586 5578 5572 5565 5558 5551 5545 5538 5532 5525 5518 5511 5503 5495 5486 5478 5471 5464 5459 5454 5449 5444 5440 5437 5433 5430 5426 5425
5824 5822 5819 5817 5814 5812 5810 5808 5805 5802 5799 5796 5793 5790 5786 5783 5779 5775 5771 5767 5764 5761 5757 5753 5749 5745 5740 5736 5732 5729 5724 5720 5717 5713 5710 5705 5701 5696 5692 5687 5682 5678 5673 5668 5663 5658 5652 5647 5642 5637 5632 5625 5619 5612 5606 5601 5594 5588 5581 5574 5567 5561 5554 5547 5541 5534 5528 5522 5516 5509 5501 5493 5484 5476 5469 5461 5455 5450 5445 5442 5438 5434 5431 5428 5424 5422
5823 5820 5818 5815 5813 5810 5808 5805 5802 5799 5796 5793 5790 5786 5782 5779 5776 5772 5767 5763 5759 5757 5754 5750 5746 5741 5736 5732 5729 5725 5720 5716 5713 5709 5706 5701 5697 5693 5688 5683 5678 5674 5669 5664 5659 5654 5649 5643 5638 5633 5627 5621 5614 5608 5602 5596 5590 5583 5577 5570 5563 5557 5550 5543 5537 5530 5524 5518 5512 5506 5499 5492 5483 5475 5468 5461 5454 5447 5442 5439 5436 5432 5429 5426 5423 5420
5820 5818 5816 5813 5811 5808 5805 5802 5799 5796 5792 5789 5786 5783 5779 5775 5772 5769 5765 5760 5755 5752 5749 5746 5742 5738 5733 5729 5726 5722 5717 5713 5709 5706 5702 5697 5693 5689 5684 5679 5674 5670 5665 5660 5655 5651 5645 5640 5634 5628 5622 5616 5610 5604 5599 5592 5586 5579 5573 5566 5560 5553 5546 5539 5533 5526 5520 5514 5509 5503 5497 5490 5482 5475 5467 5459 5453 5446 5441 5436 5434 5431 5427 5424 5421 5419
5818 5816 5813 5811 5808 5805 5802 5799 5796 5793 5789 5786 5783 5779 5776 5772 5768 5764 5761 5757 5752 5747 5744 5740 5738 5735 5729 5725 5722 5718 5713 5709 5705 5702 5698 5693 5689 5684 5680 5675 5671 5666 5662 5657 5652 5647 5642 5636 5630 5624 5618 5612 5607 5601 5595 5588 5582 5575 5569 5563 5556 5549 5542 5535 5529 5523 5516 5510 5505 5499 5493 5487 5481 5474 5466 5458 5452 5445 5439 5434 5431 5428 5425 5422 5420 5417
5816 5814 5811 5808 5805 5802 5800 5797 5793 5791 5787 5784 5780 5777 5773 5769 5765 5761 5757 5753 5749 5745 5740 5735 5733 5732 5726 5721 5718 5714 5710 5706 5701 5697 5693 5689 5684 5680 5676 5671 5667 5663 5658 5654 5649 5644 5638 5632 5626 5620 5614 5608 5603 5597 5591 5585 5578 5572 5565 5559 5552 5545 5538 5532 5526 5519 5513 5507 5501 5495 5489 5482 5477 5470 5464 5457 5451 5444 5439 5433 5429 5426 5423 5420 5417 5415
5814 5811 5808 5805 5803 5800 5797 5794 5791 5788 5785 5781 5778 5774 5769 5765 5761 5757 5753 5749 5745 5741 5736 5731 5727 5726 5723 5718 5714 5710 5705 5701 5697 5693 5689 5684 5680 5676 5672 5668 5663 5659 5655 5650 5645 5640 5635 5629 5623 5617 5610 5605 5599 5594 5587 5581 5575 5568 5561 5555 5548 5542 5535 5529 5523 5516 5510 5504 5498 5492 5486 5479 5473 5467 5461 5455 5449 5443 5437 5432 5428 5424 5420 5417 5415 5413
5811 5808 5806 5803 5800 5797 5794 5791 5788 5785 5781 5777 5774 5770 5766 5762 5758 5754 5750 5745 5741 5737 5733 5728 5723 5721 5719 5715 5710 5706 5701 5697 5693 5689 5685 5680 5676 5672 5668 5664 5660 5655 5651 5646 5642 5636 5631 5625 5619 5613 5607 5602 5596 5590 5584 5577 5571 5564 5558 5551 5545 5539 5532 5526 5519 5513 5507 5501 5495 5489 5482 5476 5470 5464 5458 5452 5446 5441 5435 5430 5426 5422 5419 5415 5412 5410
5809 5806 5803 5800 5797 5794 5791 5788 5785 5781 5778 5774 5770 5767 5763 5759 5755 5751 5746 5742 5738 5734 5729 5725 5720 5717 5714 5710 5706 5702 5697 5693 5689 5685 5681 5677 5673 5669 5665 5660 5656 5652 5647 5642 5638 5632 5627 5621 5615 5610 5604 5598 5592 5586 5580 5574 5567 5560 5554 5548 5541 5535 5529 5522 5516 5510 5504 5497 5491 5485 5479 5473 5467 5462 5456 5450 5444 5438 5433 5428 5423 5420 5416 5413 5410 5407
5806 5803 5800 5798 5794 5791 5788 5785 5781 5778 5775 5771 5767 5763 5759 5756 5752 5747 5743 5739 5735 5731 5726 5722 5717 5713 5710 5706 5701 5697 5693 5689 5686 5682 5678 5674 5670 5665 5661 5657 5652 5648 5643 5638 5634 5628 5623 5617 5611 5606 5601 5595 5589 5583 5576 5570 5563 5557 5550 5544 5537 5531 5525 5518 5512 5506 5500 5494 5488 5482 5476 5470 5465 5459 5453 5447 5442 5436 5430 5425 5421 5417 5413 5410 5407 5404
5804 5801 5798 5795 5791 5788 5785 5782 5779 5775 5771 5768 5764 5761 5756 5752 5748 5744 5740 5736 5732 5728 5723 5718 5713 5708 5705 5701 5697 5693 5689 5686 5682 5679 5675 5671 5667 5662 5658 5654 5649 5644 5640 5635 5630 5625 5619 5613 5608 5603 5597 5591 5585 5579 5572 5566 5560 5553 5546 5540 5533 5527 5521 5514 5508 5502 5496 5490 5484 5479 5473 5468 5462 5456 5450 5445 5440 5434 5429 5423 5418 5414 5410 5407 5404 5401
5801 5798 5795 5792 5789 5786 5782 5779 5776 5772 5768 5764 5760 5757 5752 5749 5745 5741 5737 5733 5728 5724 5719 5714 5709 5705 5702 5698 5694 5690 5686 5683 5679 5675 5672 5668 5664 5660 5655 5650 5646 5641 5637 5632 5626 5620 5615 5609 5604 5599 5593 5588 5582 5575 5569 5562 5556 5550 5543 5536 5529 5522 5516 5510 5504 5498 5492 5486 5481 5475 5470 5465 5459 5454 5448 5442 5437 5432 5427 5421 5416 5411 5407 5404 5401 5398
5799 5796 5793 5790 5787 5783 5780 5776 5772 5769 5765 5761 5756 5752 5748 5745 5741 5737 5733 5729 5724 5720 5715 5711 5706 5702 5699 5695 5692 5688 5684 5680 5676 5672 5669 5665 5661 5657 5652 5647 5642 5638 5633 5628 5622 5617 5611 5605 5600 5595 5589 5584 5578 5572 5565 5559 5552 5545 5539 5532 5524 5518 5511 5506 5500 5494 5488 5483 5477 5472 5467 5462 5456 5451 5445 5440 5434 5429 5424 5419 5414 5409 5404 5401 5397 5394
5797 5794 5790 5787 5784 5780 5776 5773 5769 5765 5761 5757 5753 5749 5744 5739 5735 5731 5728 5725 5722 5718 5713 5709 5704 5700 5697 5694 5690 5686 5682 5678 5674 5670 5665 5661 5657 5653 5649 5644 5639 5634 5629 5624 5618 5613 5607 5602 5596 5591 5585 5579 5574 5568 5561 5555 5548 5541 5534 5528 5520 5513 5507 5501 5496 5490 5485 5479 5474 5469 5463 5458 5453 5447 5442 5437 5431 5426 5421 5416 5411 5406 5402 5398 5394 5391
5794 5790 5787 5784 5780 5776 5773 5769 5765 5762 5758 5754 5750 5745 5740 5736 5732 5727 5724 5720 5718 5716 5712 5708 5702 5697 5694 5692 5687 5684 5680 5675 5672 5667 5662 5657 5653 5650 5645 5640 5635 5630 5625 5619 5614 5609 5603 5598 5592 5586 5581 5575 5569 5563 5556 5550 5543 5537 5530 5524 5517 5510 5503 5497 5492 5486 5481 5475 5470 5465 5459 5454 5449 5444 5439 5433 5428 5423 5418 5413 5408 5403 5399 5395 5391 5388
5791 5787 5784 5780 5777 5773 5769 5765 5762 5758 5754 5751 5746 5742 5738 5734 5730 5725 5722 5717 5713 5711 5709 5706 5701 5695 5691 5689 5685 5682 5678 5673 5668 5664 5659 5654 5649 5646 5641 5636 5631 5625 5620 5615 5610 5605 5599 5594 5588 5582 5575 5569 5563 5557 5551 5545 5539 5533 5526 5520 5513 5507 5500 5493 5488 5482 5476 5471 5465 5460 5455 5451 5446 5441 5436 5430 5425 5420 5415 5410 5405 5400 5396 5392 5389 5385
5788 5784 5781 5777 5773 5770 5766 5762 5758 5754 5751 5747 5743 5739 5735 5731 5727 5723 5719 5714 5709 5707 5706 5703 5699 5692 5687 5685 5682 5678 5674 5670 5665 5660 5655 5650 5645 5641 5636 5632 5627 5621 5616 5611 5606 5601 5595 5589 5583 5577 5570 5564 5558 5552 5546 5540 5534 5528 5522 5516 5509 5502 5496 5489 5483 5477 5472 5467 5461 5456 5451 5446 5442 5437 5432 5427 5422 5417 5412 5407 5402 5397 5393 5389 5386 5382
5784 5782 5778 5774 5770 5767 5763 5759 5755 5751 5748 5744 5740 5736 5732 5728 5724 5719 5715 5711 5706 5702 5701 5701 5697 5688 5681 5679 5677 5674 5670 5666 5662 5657 5651 5646 5641 5636 5632 5627 5622 5617 5612 5607 5601 5596 5590 5584 5578 5572 5566 5560 5553 5547 5541 5535 5529 5524 5517 5511 5504 5498 5491 5485 5478 5472 5467 5462 5457 5452 5447 5442 5438 5433 5429 5424 5418 5413 5408 5404 5399 5395 5390 5386 5383 5379
5781 5779 5776 5772 5767 5764 5760 5756 5752 5748 5744 5741 5737 5733 5728 5724 5720 5716 5712 5708 5702 5697 5694 5695 5696 5688 5678 5675 5672 5669 5665 5661 5657 5653 5648 5643 5638 5632 5628 5623 5618 5613 5608 5602 5597 5591 5586 5580 5574 5568 5562 5555 5549 5543 5537 5531 5525 5519 5512 5506 5500 5493 5486 5480 5474 5468 5462 5457 5452 5447 5442 5438 5433 5429 5424 5420 5415 5410 5405 5400 5396 5392 5387 5383 5380 5376
5778 5775 5772 5769 5764 5760 5757 5753 5749 5745 5741 5738 5734 5730 5726 5721 5717 5713 5709 5705 5699 5694 5688 5687 5691 5689 5678 5671 5668 5665 5661 5656 5651 5648 5644 5639 5634 5628 5623 5619 5614 5609 5604 5598 5592 5587 5581 5575 5569 5563 5557 5550 5544 5538 5532 5526 5519 5513 5507 5501 5495 5488 5482 5475 5469 5463 5457 5451 5446 5442 5437 5433 5429 5424 5420 5416 5411 5407 5402 5397 5393 5389 5384 5380 5377 5373
5775 5771 5769 5765 5761 5757 5754 5750 5747 5743 5739 5735 5731 5727 5723 5719 5714 5710 5707 5703 5698 5693 5687 5681 5683 5686 5678 5669 5665 5661 5657 5653 5647 5643 5640 5636 5630 5625 5619 5614 5610 5605 5599 5593 5587 5582 5576 5570 5564 5558 5552 5545 5539 5533 5527 5521 5514 5508 5502 5495 5489 5483 5477 5471 5465 5459 5453 5447 5442 5437 5432 5428 5424 5420 5416 5412 5407 5403 5398 5394 5389 5385 5381 5377 5373 5370
5771 5768 5765 5762 5758 5754 5751 5747 5743 5740 5736 5732 5728 5724 5720 5716 5711 5707 5704 5701 5696 5691 5686 5679 5677 5681 5677 5667 5662 5659 5654 5650 5645 5640 5636 5632 5626 5621 5615 5610 5604 5600 5595 5588 5582 5576 5570 5564 5558 5552 5546 5540 5534 5528 5522 5515 5509 5503 5496 5490 5484 5478 5472 5466 5460 5454 5449 5444 5438 5433 5428 5423 5419 5415 5411 5407 5403 5399 5395 5390 5386 5381 5377 5373 5369 5366
5768 5765 5762 5759 5756 5751 5747 5744 5741 5737 5734 5730 5725 5721 5717 5713 5709 5705 5700 5697 5693 5687 5683 5676 5672 5675 5673 5664 5658 5656 5651 5648 5643 5637 5632 5628 5622 5616 5611 5605 5600 5595 5589 5583 5577 5571 5565 5559 5553 5547 5541 5535 5529 5523 5516 5510 5503 5497 5491 5484 5478 5473 5466 5461 5455 5449 5444 5439 5434 5429 5424 5419 5414 5410 5407 5403 5399 5395 5391 5387 5382 5378 5374 5370 5366 5362
5764 5761 5758 5756 5753 5749 5745 5741 5737 5734 5732 5728 5723 5718 5715 5711 5707 5702 5697 5693 5689 5684 5679 5672 5665 5667 5668 5661 5655 5652 5648 5644 5640 5635 5629 5624 5618 5612 5606 5601 5595 5589 5584 5577 5571 5566 5559 5553 5547 5541 5535 5529 5523 5517 5511 5504 5498 5491 5485 5479 5473 5467 5461 5455 5450 5444 5439 5434 5429 5424 5419 5414 5410 5406 5402 5398 5394 5391 5387 5383 5379 5374 5370 5366 5362 5358
5761 5758 5754 5751 5749 5746 5742 5737 5732 5730 5727 5723 5719 5714 5711 5708 5703 5699 5694 5689 5684 5680 5677 5669 5660 5661 5663 5657 5652 5649 5644 5641 5637 5632 5626 5620 5613 5608 5601 5596 5590 5584 5579 5572 5566 5560 5554 5548 5542 5535 5529 5523 5517 5511 5505 5499 5492 5486 5479 5473 5467 5462 5456 5450 5445 5439 5434 5429 5424 5419 5414 5410 5405 5401 5397 5393 5390 5386 5383 5379 5374 5370 5366 5362 5358 5354
5758 5755 5751 5747 5744 5741 5738 5733 5728 5725 5723 5719 5714 5710 5706 5703 5699 5695 5690 5685 5679 5675 5673 5669 5658 5655 5658 5654 5648 5644 5639 5635 5634 5629 5623 5616 5608 5602 5596 5590 5585 5579 5573 5567 5560 5554 5548 5542 5536 5529 5523 5517 5511 5504 5498 5493 5487 5480 5474 5467 5462 5456 5450 5445 5440 5434 5428 5423 5418 5414 5409 5404 5400 5396 5392 5388 5385 5381 5378 5374 5370 5366 5362 5358 5354 5350
5754 5752 5749 5745 5742 5738 5734 5730 5725 5722 5720 5716 5711 5706 5702 5700 5697 5693 5688 5683 5677 5670 5668 5666 5657 5650 5652 5649 5642 5639 5634 5629 5627 5623 5618 5611 5603 5596 5590 5585 5579 5573 5567 5561 5554 5548 5542 5535 5529 5523 5516 5510 5504 5497 5491 5486 5480 5474 5468 5462 5456 5450 5445 5439 5434 5428 5423 5418 5413 5408 5403 5399 5394 5390 5386 5382 5379 5376 5372 5369 5365 5361 5357 5353 5349 5346
5750 5749 5746 5742 5740 5736 5731 5727 5723 5720 5718 5714 5710 5704 5699 5697 5694 5691 5686 5680 5674 5667 5661 5661 5655 5648 5647 5643 5637 5633 5628 5623 5621 5618 5612 5605 5597 5591 5585 5579 5574 5568 5561 5555 5548 5541 5535 5529 5522 5516 5510 5503 5497 5490 5484 5479 5473 5468 5462 5456 5449 5444 5439 5434 5428 5423 5417 5412 5407 5402 5398 5393 5389 5384 5380 5377 5373 5370 5367 5363 5360 5356 5353 5349 5345 5341
5746 5745 5742 5739 5738 5734 5728 5724 5720 5717 5715 5712 5708 5701 5696 5694 5691 5689 5685 5678 5671 5664 5658 5654 5650 5646 5643 5639 5633 5629 5623 5617 5615 5613 5607 5599 5590 5584 5579 5573 5568 5562 5555 5549 5542 5535 5528 5522 5516 5509 5503 5496 5489 5483 5477 5471 5466 5460 5455 5449 5443 5437 5432 5427 5422 5417 5412 5407 5402 5397 5392 5387 5383 5379 5375 5371 5368 5365 5361 5358 5355 5352 5348 5345 5341 5337
5742 5741 5738 5736 5735 5732 5727 5721 5718 5715 5712 5710 5706 5698 5693 5691 5688 5685 5683 5676 5667 5662 5656 5650 5646 5644 5640 5634 5628 5624 5619 5612 5609 5606 5601 5593 5584 5578 5573 5567 5561 5555 5549 5542 5535 5529 5522 5515 5509 5502 5495 5489 5482 5475 5470 5464 5458 5453 5448 5442 5436 5430 5425 5420 5416 5411 5406 5401 5396 5392 5387 5382 5378 5374 5370 5366 5363 5360 5356 5353 5350 5347 5344 5340 5337 5333
5738 5736 5734 5731 5731 5730 5725 5720 5716 5712 5709 5707 5703 5696 5690 5686 5682 5680 5679 5674 5665 5657 5652 5646 5641 5639 5637 5630 5623 5618 5613 5607 5603 5601 5596 5587 5578 5571 5566 5561 5555 5548 5543 5536 5530 5523 5516 5509 5502 5495 5488 5481 5475 5468 5462 5456 5450 5445 5440 5434 5428 5423 5418 5413 5408 5404 5400 5395 5391 5386 5381 5377 5372 5368 5365 5361 5357 5354 5351 5348 5345 5342 5339 5336 5332 5329
5735 5732 5729 5726 5726 5726 5722 5717 5714 5711 5707 5704 5698 5692 5687 5682 5677 5674 5674 5671 5662 5653 5648 5643 5637 5633 5631 5626 5619 5614 5608 5602 5597 5594 5588 5580 5573 5566 5559 5553 5549 5543 5537 5531 5524 5517 5510 5503 5496 5489 5481 5474 5467 5461 5454 5447 5442 5437 5432 5426 5421 5415 5411 5406 5401 5397 5393 5389 5385 5380 5376 5371 5367 5362 5359 5355 5352 5349 5346 5343 5340 5337 5335 5331 5328 5325
5732 5728 5725 5722 5721 5721 5718 5714 5711 5708 5704 5700 5694 5688 5683 5678 5672 5668 5668 5666 5659 5649 5643 5637 5632 5628 5624 5620 5614 5610 5605 5598 5592 5588 5580 5570 5564 5561 5555 5548 5543 5538 5531 5525 5518 5511 5504 5497 5489 5482 5474 5467 5460 5453 5446 5439 5433 5428 5423 5418 5412 5407 5404 5399 5394 5390 5386 5382 5379 5375 5370 5366 5361 5357 5353 5350 5347 5344 5341 5338 5335 5332 5330 5327 5324 5321
5729 5725 5722 5719 5716 5716 5714 5710 5708 5706 5700 5694 5689 5683 5677 5673 5668 5663 5662 5662 5655 5646 5639 5633 5628 5624 5619 5614 5608 5603 5598 5593 5587 5582 5575 5564 5556 5553 5550 5545 5538 5532 5526 5519 5513 5505 5497 5490 5483 5475 5468 5460 5453 5445 5438 5430 5424 5419 5414 5409 5404 5400 5396 5392 5387 5382 5378 5375 5372 5368 5365 5360 5355 5351 5348 5344 5341 5338 5335 5333 5330 5327 5325 5322 5319 5316
5726 5722 5719 5715 5712 5711 5709 5706 5703 5702 5697 5690 5683 5679 5673 5670 5665 5658 5657 5657 5651 5642 5636 5629 5624 5619 5614 5608 5603 5597 5592 5588 5583 5577 5569 5562 5554 5546 5542 5538 5532 5525 5519 5512 5506 5499 5491 5483 5475 5468 5460 5453 5445 5437 5429 5422 5416 5411 5406 5401 5396 5392 5388 5384 5380 5375 5371 5368 5365 5362 5359 5354 5350 5346 5342 5339 5335 5333 5330 5328 5325 5322 5320 5317 5314 5312
5723 5719 5716 5713 5709 5706 5704 5701 5698 5696 5693 5686 5679 5675 5671 5667 5661 5653 5651 5652 5646 5637 5630 5624 5619 5614 5608 5602 5597 5592 5586 5583 5581 5574 5564 5556 5550 5543 5535 5529 5523 5517 5511 5504 5497 5490 5483 5475 5468 5460 5452 5445 5437 5429 5421 5414 5408 5402 5397 5393 5388 5384 5381 5377 5372 5368 5365 5361 5358 5356 5352 5349 5344 5340 5336 5333 5330 5327 5325 5322 5320 5317 5315 5312 5309 5307
5720 5717 5713 5710 5706 5702 5699 5696 5693 5690 5688 5681 5674 5670 5666 5660 5655 5647 5644 5645 5641 5632 5625 5619 5614 5609 5603 5596 5590 5585 5579 5576 5577 5575 5566 5556 5548 5541 5533 5526 5518 5510 5504 5498 5491 5485 5476 5468 5460 5452 5444 5436 5429 5421 5414 5407 5401 5395 5390 5385 5380 5376 5373 5369 5366 5362 5359 5355 5352 5349 5346 5343 5339 5335 5331 5328 5325 5322 5320 5317 5315 5312 5310 5307 5305 5302
5718 5715 5711 5707 5704 5699 5694 5691 5688 5685 5681 5674 5668 5665 5660 5655 5650 5643 5638 5637 5634 5626 5620 5614 5608 5603 5596 5588 5582 5576 5571 5567 5568 5568 5563 5555 5547 5539 5532 5525 5517 5508 5499 5491 5484 5478 5470 5461 5452 5444 5436 5428 5421 5413 5406 5400 5393 5388 5383 5378 5374 5370 5366 5362 5359 5355 5352 5348 5345 5343 5340 5337 5333 5329 5326 5322 5320 5317 5314 5312 5310 5307 5305 5302 5300 5298
5716 5713 5709 5705 5701 5696 5691 5687 5684 5680 5676 5669 5663 5660 5655 5650 5645 5639 5634 5632 5628 5620 5613 5608 5602 5596 5588 5580 5575 5569 5562 5556 5555 5556 5551 5545 5539 5531 5521 5515 5509 5501 5494 5486 5476 5469 5461 5453 5445 5436 5428 5420 5413 5406 5399 5393 5386 5381 5375 5371 5367 5363 5359 5355 5352 5349 5345 5342 5339 5336 5334 5331 5327 5324 5320 5317 5314 5312 5309 5307 5305 5302 5300 5297 5295 5293
5713 5710 5707 5702 5698 5693 5688 5684 5681 5677 5672 5666 5660 5656 5651 5645 5640 5633 5627 5626 5623 5616 5607 5600 5595 5590 5582 5575 5569 5565 5558 5547 5541 5540 5537 5531 5526 5520 5510 5502 5496 5489 5483 5477 5470 5463 5455 5446 5437 5428 5420 5413 5406 5399 5393 5386 5380 5374 5368 5363 5359 5355 5352 5349 5346 5342 5338 5336 5333 5330 5327 5325 5321 5319 5315 5312 5309 5306 5304 5301 5299 5297 5295 5293 5290 5288
5710 5707 5703 5698 5694 5689 5684 5679 5676 5673 5668 5662 5655 5651 5645 5640 5635 5628 5621 5616 5613 5609 5603 5595 5588 5583 5578 5572 5565 5560 5555 5547 5536 5530 5526 5520 5514 5510 5504 5496 5490 5483 5475 5468 5461 5455 5448 5440 5430 5421 5414 5406 5399 5392 5385 5379 5373 5367 5360 5356 5351 5348 5345 5342 5339 5335 5332 5330 5326 5324 5321 5318 5316 5313 5310 5307 5304 5301 5298 5296 5294 5292 5290 5288 5286 5284
5705 5702 5698 5693 5688 5684 5680 5675 5670 5667 5664 5657 5650 5645 5639 5633 5628 5623 5617 5611 5604 5599 5596 5591 5584 5578 5573 5569 5562 5555 5550 5545 5536 5527 5520 5514 5507 5501 5495 5489 5483 5478 5471 5463 5455 5447 5439 5432 5424 5415 5407 5399 5391 5384 5377 5372 5366 5359 5353 5349 5344 5340 5338 5335 5331 5328 5326 5323 5320 5317 5315 5312 5310 5307 5304 5302 5299 5296 5293 5291 5289 5287 5285 5283 5281 5279
5701 5697 5693 5688 5683 5679 5675 5670 5664 5661 5659 5652 5645 5639 5634 5628 5622 5616 5611 5607 5600 5593 5588 5585 5580 5572 5565 5560 5557 5551 5543 5538 5531 5522 5515 5510 5502 5495 5488 5481 5474 5469 5463 5456 5447 5439 5431 5424 5417 5408 5400 5392 5384 5377 5370 5365 5359 5353 5347 5341 5336 5333 5332 5328 5324 5322 5320 5317 5314 5311 5308 5306 5304 5301 5299 5297 5294 5291 5288 5286 5284 5282 5281 5279 5277 5275
5697 5693 5688 5684 5679 5675 5671 5666 5660 5656 5654 5647 5640 5634 5629 5622 5616 5610 5604 5601 5597 5591 5584 5580 5576 5569 5559 5551 5546 5541 5534 5527 5523 5516 5509 5504 5498 5490 5483 5477 5469 5461 5454 5446 5438 5430 5423 5416 5408 5401 5393 5385 5377 5370 5364 5358 5352 5346 5340 5334 5329 5326 5324 5321 5318 5316 5314 5311 5308 5305 5302 5300 5297 5295 5293 5291 5289 5286 5283 5281 5279 5277 5276 5274 5272 5271
5693 5688 5684 5680 5675 5671 5667 5662 5655 5652 5650 5644 5635 5629 5625 5619 5612 5606 5599 5594 5589 5583 5577 5571 5567 5562 5553 5544 5537 5532 5526 5520 5515 5510 5501 5495 5489 5483 5476 5470 5462 5453 5444 5437 5429 5422 5415 5408 5400 5393 5385 5378 5370 5363 5357 5351 5345 5339 5333 5327 5322 5319 5316 5314 5312 5310 5307 5305 5302 5298 5296 5294 5291 5289 5288 5286 5284 5281 5278 5276 5274 5273 5271 5270 5268 5266
5689 5684 5680 5676 5672 5668 5664 5658 5651 5647 5646 5641 5632 5624 5619 5614 5609 5603 5598 5591 5584 5577 5569 5562 5556 5550 5544 5536 5529 5525 5520 5512 5506 5501 5495 5487 5481 5475 5468 5461 5454 5445 5436 5428 5421 5414 5408 5401 5393 5385 5378 5370 5363 5357 5351 5345 5339 5333 5327 5320 5316 5312 5309 5307 5305 5303 5301 5298 5296 5293 5290 5288 5285 5284 5282 5280 5279 5276 5273 5271 5269 5268 5266 5265 5263 5262
5685 5680 5675 5671 5667 5664 5660 5655 5647 5642 5639 5635 5629 5623 5617 5611 5604 5598 5591 5585 5578 5572 5564 5556 5548 5542 5536 5530 5522 5516 5512 5504 5496 5490 5486 5479 5472 5466 5458 5451 5444 5437 5428 5419 5412 5404 5398 5391 5384 5377 5370 5363 5356 5350 5344 5338 5332 5326 5320 5315 5310 5306 5303 5301 5298 5296 5295 5292 5289 5286 5284 5282 5280 5278 5276 5275 5273 5271 5269 5266 5264 5263 5262 5260 5259 5257
5680 5675 5671 5667 5663 5659 5655 5649 5643 5639 5635 5630 5623 5618 5613 5606 5599 5592 5584 5576 5570 5564 5558 5552 5543 5534 5527 5522 5514 5508 5503 5497 5488 5481 5475 5469 5461 5454 5447 5439 5432 5426 5419 5411 5404 5396 5388 5382 5376 5369 5362 5356 5349 5343 5337 5331 5325 5320 5314 5309 5304 5300 5297 5295 5292 5290 5288 5286 5283 5280 5278 5276 5274 5272 5271 5270 5268 5266 5264 5261 5259 5258 5257 5256 5255 5253
5676 5671 5666 5661 5658 5654 5649 5643 5638 5635 5633 5628 5618 5610 5604 5597 5590 5585 5578 5571 5564 5556 5551 5546 5540 5531 5520 5511 5502 5495 5490 5486 5479 5471 5464 5458 5449 5441 5435 5428 5421 5415 5409 5402 5396 5389 5380 5372 5366 5360 5354 5348 5342 5336 5330 5324 5318 5313 5308 5303 5298 5295 5291 5289 5286 5284 5281 5279 5277 5274 5272 5270 5269 5267 5266 5264 5263 5261 5259 5257 5255 5253 5252 5251 5250 5249
5671 5667 5661 5655 5651 5648 5643 5637 5629 5624 5623 5619 5612 5604 5597 5590 5584 5578 5572 5565 5559 5551 5544 5539 5535 5530 5521 5510 5498 5486 5478 5474 5469 5461 5454 5448 5439 5430 5423 5417 5410 5404 5399 5392 5386 5380 5373 5365 5357 5351 5346 5340 5334 5328 5323 5317 5311 5306 5301 5297 5292 5289 5286 5283 5281 5278 5275 5273 5271 5269 5267 5266 5264 5262 5261 5259 5258 5257 5255 5252 5250 5249 5248 5247 5246 5245
5666 5661 5656 5650 5645 5640 5635 5630 5623 5616 5612 5609 5604 5598 5592 5585 5578 5573 5567 5560 5553 5547 5539 5530 5524 5518 5513 5507 5498 5486 5473 5465 5459 5451 5443 5437 5430 5421 5414 5408 5400 5393 5387 5381 5374 5369 5363 5357 5349 5342 5336 5332 5326 5321 5315 5310 5304 5299 5294 5290 5286 5283 5280 5278 5276 5273 5271 5269 5267 5265 5263 5261 5259 5257 5256 5254 5253 5252 5250 5248 5246 5245 5244 5243 5241 5240